Location: Kershaw
(34.5481°N, 80.5823°W)
Time: 13:42:03
(UTC+00:00)

A-11 Canister half - Pass Details

Date: 04 October 2022
Orbit: 1524 x 1685 km, 47.3° (Epoch: 25 November)

Event Time Altitude Azimuth Distance (km) Brightness Sun altitude
Rises 01:21:54 0° 303° (WNW) 4,704 12.6 -29.1°
Reaches altitude 10° 01:25:02 10° 308° (NW) 3,735 11.8 -29.7°
Maximum altitude 01:34:20 57° 26° (NNE) 1,823 9.2 -31.5°
Enters shadow 01:35:50 52° 57° (ENE) 1,906 9.1 -31.8°
